This is the latest recevied weather packets stored in our database for station/object KE8CZD. If no packets are shown the sender has not sent any weather packets the latest 10 day(s).
| Time | Temp. | Humidity | Pressure | Rain* | Wind** | Luminosity | Snow |
|---|---|---|---|---|---|---|---|
| 1777938165 | 21.67° C | 40% | 994.8 hPa | 0 mm | - | - | - |
| 1777937804 | 22.78° C | 39% | 994.7 hPa | 0 mm | - | - | - |
| 1777937445 | 23.33° C | 40% | 994.6 hPa | 0 mm | - | - | - |
| 1777937084 | 23.33° C | 39% | 994.6 hPa | 0 mm | - | - | - |
| 1777936724 | 23.33° C | 38% | 994.5 hPa | 0 mm | - | - | - |
| 1777936364 | 23.89° C | 35% | 994.6 hPa | 0 mm | - | - | - |
| 1777936004 | 23.89° C | 35% | 994.5 hPa | 0 mm | - | - | - |
| 1777935644 | 23.89° C | 34% | 994.4 hPa | 0 mm | - | - | - |
| 1777935284 | 23.89° C | 34% | 994.3 hPa | 0 mm | - | - | - |
| 1777934924 | 23.89° C | 34% | 994.2 hPa | 0 mm | - | - | - |
| 1777934564 | 24.44° C | 34% | 994.4 hPa | 0 mm | - | - | - |
| 1777934204 | 23.89° C | 34% | 994.5 hPa | 0 mm | - | - | - |
| 1777933844 | 24.44° C | 34% | 994.5 hPa | 0 mm | - | - | - |
| 1777933484 | 23.33° C | 35% | 994.9 hPa | 0 mm | - | - | - |
| 1777933124 | 23.89° C | 35% | 995 hPa | 0 mm | - | - | - |
| 1777932764 | 23.89° C | 34% | 995.1 hPa | 0 mm | - | - | - |
| 1777932405 | 23.33° C | 34% | 995.1 hPa | 0 mm | - | - | - |
| 1777932044 | 23.89° C | 33% | 995.2 hPa | 0 mm | - | - | - |
| 1777931684 | 23.89° C | 32% | 995.1 hPa | 0 mm | - | - | - |
| 1777931324 | 24.44° C | 31% | 994.9 hPa | 0 mm | - | - | - |
| 1777930964 | 24.44° C | 30% | 995 hPa | 0 mm | - | - | - |
| 1777930605 | 24.44° C | 31% | 995.1 hPa | 0 mm | - | - | - |
| 1777930244 | 24.44° C | 31% | 995.2 hPa | 0 mm | - | - | - |
| 1777929884 | 23.89° C | 31% | 995.3 hPa | 0 mm | - | - | - |
| 1777929524 | 23.89° C | 30% | 995.4 hPa | 0 mm | - | - | - |
* Rain latest hour (hover to see other rain measurements)
** Current wind speed in m/s (hover to see current wind gust speed)